User: anonymous   Login
Location: Montague
(41.3030°N, 74.7940°W)
Time: 04:46:14
(UTC-05:00)
Language:

Cosmos 1461 - Orbit

View from above orbital plane
View from above orbital plane
View from above satellite
View from above satellite

Ground track
Ground track

The orbit data is extracted from the following two-line orbital elements,

1 14064U 83044A   17019.60257877  .00000622  00000-0  54808-4 0  9993
2 14064  65.0030  24.4364 0085181 107.2938 253.8040 14.93420287701164
Epoch (UTC): 19 January 2017 14:27:42
Eccentricity: 0.0085181
inclination: 65.0030°
perigee height: 528 km
apogee height: 646 km
right ascension of ascending node: 24.4364°
argument of perigee: 107.2938°
revolutions per day: 14.93420287
mean anomaly at epoch: 253.8040°
orbit number at epoch: 70116

The dashed part of the orbit path shows where the satellite is in the earth's shadow,  

DLR